Dewpoint
66 65 64 65 66 64 64 64 64 63 61 61 60 59 58 58 57 57 57 56 57 58 57 57 56 55 55 54 54 53 53 54 53 53 53 53 52 52 52 52 52 51 51
66 65 62 63 66 65 64 63 64 62 61 60 59 59 58 57 57 56 57 57 58 57 57 56 56 56 55 54 53 53 53 53 53 53 53 52 52 52 51 51 51 51 50
66 66 62 61 65 65 64 64 64 62 61 59 59 58 57 57 56 56 55 55 57 58 57 55 56 55 55 54 53 53 53 52 53 53 52 52 52 51 51 50 50 50 50
66 66 64 61 63 64 64 64 64 62 60 59 58 58 57 56 55 55 55 54 55 55 57 56 57 56 55 54 54 53 53 53 53 52 52 52 51 51 51 50 50 49 49
66 65 65 62 62 62 63 64 63 61 60 59 58 58 57 56 55 54 54 54 55 55 55 57 57 57 56 54 53 53 53 52 52 52 52 52 51 51 50 50 49 48 48
66 65 64 64 62 62 62 64 62 62 60 59 58 57 57 56 55 55 54 54 54 54 55 55 56 55 56 56 54 53 53 53 53 52 52 52 51 51 50 49 49 48 47
65 64 63 62 61 60 62 63 63 61 60 59 57 56 56 57 55 55 54 54 54 53 54 54 54 53 55 56 55 54 54 54 53 53 52 52 51 51 50 49 48 48 46
65 64 62 63 62 60 61 63 63 61 59 59 57 56 53 55 56 55 54 54 53 53 53 53 53 52 53 54 54 55 54 54 53 53 52 52 51 51 50 50 48 47 46
64 63 62 63 62 62 61 62 63 61 58 59 58 57 54 53 55 55 55 54 53 52 52 52 52 52 52 52 54 55 55 55 54 54 53 52 52 51 51 50 49 48 47
64 63 62 62 63 62 62 62 63 62 60 58 59 59 57 55 53 53 54 55 54 52 52 52 52 52 51 51 52 53 53 53 55 55 54 53 52 51 51 50 49 48 47
63 62 62 57 62 63 62 62 62 62 61 60 59 58 56 55 54 52 51 52 53 53 52 52 52 51 50 50 50 52 52 52 52 55 55 54 53 52 51 50 50 49 48
63 62 60 58 61 64 63 62 63 61 61 61 59 59 57 55 53 52 50 50 53 52 52 52 51 50 50 49 50 50 51 50 51 53 55 55 54 53 51 50 50 50 49
62 62 61 60 59 62 63 63 62 62 61 60 59 59 59 58 56 53 52 51 51 52 52 52 51 51 50 49 49 50 50 49 49 51 53 54 55 54 53 51 50 50 50
62 62 62 61 59 60 62 62 62 62 61 61 60 60 59 58 56 54 53 51 50 50 51 52 53 52 51 50 48 49 48 48 48 48 50 52 53 53 53 52 52 51 50
62 62 61 61 60 58 60 59 57 60 61 61 61 60 60 60 59 56 54 53 52 49 50 52 52 53 52 51 49 49 48 48 47 46 47 49 51 52 52 52 52 51 51
62 62 61 60 60 58 59 58 56 56 60 61 61 61 60 60 60 59 55 54 54 53 51 53 52 52 53 51 50 49 48 47 47 46 45 46 48 49 50 50 50 50 50
62 62 61 60 59 58 57 58 57 58 58 60 61 61 60 60 60 59 58 55 53 53 52 54 53 52 52 52 49 49 48 48 47 46 45 44 45 46 47 48 48 48 48
59 62 62 60 60 59 58 58 58 58 59 59 60 60 60 60 59 60 59 58 55 54 53 53 53 51 51 52 50 49 47 45 46 46 45 44 44 44 44 44 45 45 45
53 55 61 61 60 59 58 59 60 60 59 59 60 59 59 59 58 59 59 59 58 57 54 55 55 52 50 49 48 48 48 48 45 46 45 44 43 43 43 43 43 43 43
48 52 57 61 60 59 59 58 59 60 60 60 61 59 58 58 58 59 59 59 58 57 55 55 55 51 50 49 49 48 47 47 46 43 44 43 44 43 43 43 42 42 42
44 47 50 58 62 61 60 59 59 60 59 59 60 60 59 57 54 56 59 59 58 56 55 55 54 51 51 48 48 49 49 48 46 46 44 43 44 43 43 42 42 41 41
41 43 46 50 60 61 52 50 57 60 60 60 59 60 60 54 53 49 49 50 56 57 56 55 55 53 54 52 50 50 49 47 48 48 46 48 45 43 42 42 41 39 40
39 40 43 46 50 60 49 48 48 60 60 60 60 60 60 60 55 58 48 47 48 47 52 56 56 55 55 53 50 49 48 48 49 48 47 47 44 44 44 41 40 40 39
38 39 42 45 48 51 48 46 45 58 60 59 60 60 60 60 59 59 59 56 57 55 53 53 57 57 56 57 53 53 51 50 49 48 49 46 43 43 44 44 41 41 40
37 38 40 43 45 48 47 46 46 56 58 59 59 60 60 60 54 50 59 58 58 57 50 47 47 47 47 47 51 53 50 49 46 47 48 48 43 42 41 42 42 41 40
35 36 37 39 40 41 40 38 45 57 56 57 59 60 48 57 49 45 58 59 58 57 57 50 50 48 46 48 45 55 52 50 46 42 46 46 41 43 42 41 41 40 39
Lifted_Index
1 1 1 1 1 2 1 1 1 2 3 3 4 4 3 3 4 6 7 9 9 9 9 9 9 10 10 11 11 11 11 12 12 12 13 13 13 13 13 13 13 14 14
1 1 1 1 2 2 2 1 1 2 3 3 4 4 3 3 4 6 8 9 9 9 9 9 9 10 10 11 11 11 11 12 12 12 13 13 13 13 13 14 14 14 14
0 1 1 2 2 2 2 2 2 2 3 3 3 3 3 3 4 6 7 9 9 9 9 10 10 10 10 10 11 11 11 12 12 12 13 13 13 13 14 14 14 14 14
0 0 1 1 2 2 2 2 2 2 3 3 2 2 3 3 4 6 7 9 10 10 10 10 10 10 10 10 11 11 12 12 12 12 13 13 13 13 14 14 14 14 14
-0 0 1 1 2 2 3 2 2 2 2 2 2 2 2 3 4 5 7 8 10 10 10 10 10 10 10 10 11 11 11 12 12 12 13 13 13 13 14 14 14 15 15
-0 0 1 1 2 2 3 2 2 2 2 2 2 2 2 3 4 5 6 7 9 10 10 10 10 10 10 10 11 11 11 11 12 12 13 13 13 13 14 14 15 15 15
-0 0 1 2 2 3 3 3 2 2 2 2 2 2 3 3 4 5 5 6 7 9 10 10 10 11 11 11 11 11 11 11 11 12 12 13 13 13 14 14 15 15 15
-1 0 1 2 3 3 3 3 2 2 2 2 2 2 3 3 4 5 5 5 6 7 8 9 9 10 11 11 11 11 10 11 11 11 12 12 13 13 14 14 15 15 15
-1 -0 1 2 2 3 3 3 3 2 3 2 2 2 2 2 3 4 5 5 5 6 6 7 8 9 11 11 12 11 11 11 11 11 11 12 13 13 13 14 14 15 15
-2 -1 0 1 2 2 3 3 2 2 3 3 2 2 2 2 3 4 4 4 4 5 6 6 7 8 10 11 12 12 11 11 11 11 11 11 12 13 13 14 14 14 14
-2 -2 -1 1 1 2 2 2 2 2 2 2 2 2 2 2 2 3 4 4 4 4 5 6 6 7 8 10 11 12 12 12 11 11 11 11 11 12 13 13 13 14 14
-2 -2 -1 0 1 1 1 2 2 2 3 2 2 2 2 2 1 2 4 4 4 4 4 5 6 6 7 8 9 10 11 12 12 11 11 11 11 12 12 13 13 13 13
-2 -2 -1 -0 1 1 1 1 2 2 3 3 2 3 2 2 1 2 3 4 4 4 4 4 5 5 6 7 8 9 10 11 11 11 11 11 11 11 12 12 12 12 12
-2 -2 -1 -1 0 1 1 1 2 2 3 2 2 2 2 2 1 2 3 3 3 3 3 4 4 4 5 5 6 7 8 9 10 10 11 12 12 12 12 12 12 12 12
-2 -2 -2 -1 -1 0 1 1 2 3 3 2 2 2 2 2 1 2 2 2 2 2 3 3 3 3 4 4 5 5 6 7 8 9 10 11 12 12 12 12 12 13 13
-2 -2 -2 -1 -1 -0 0 1 2 3 3 3 2 2 2 1 1 2 2 2 2 2 2 2 2 3 3 3 3 4 4 5 6 7 8 9 11 11 12 12 12 13 13
-1 -2 -2 -2 -1 -1 -0 1 2 2 2 2 2 2 2 2 2 2 2 2 2 1 1 1 1 1 1 2 2 3 3 3 4 5 6 7 8 10 11 11 11 12 13
-0 -1 -1 -1 -1 -1 -1 -0 1 1 1 1 2 2 2 2 2 2 2 2 2 1 0 0 0 0 0 1 1 2 2 2 2 3 4 5 6 8 9 9 10 11 11
1 1 1 -0 -1 -1 -1 -0 -0 1 1 1 1 2 2 2 2 3 3 3 2 1 0 0 -0 -0 -0 0 1 1 1 1 1 2 3 4 5 6 7 8 8 9 10
1 2 2 1 -1 -1 -1 -1 -0 0 1 1 1 1 2 2 3 3 3 3 2 0 -0 0 -0 -0 -0 -0 0 0 0 0 0 1 1 2 3 4 5 6 7 7 8
0 1 2 1 -1 -1 -1 -1 -0 0 1 1 1 1 1 2 3 3 3 2 1 -0 -1 -0 -0 -0 -0 -0 -1 -1 -0 -0 -0 -0 0 1 2 3 3 5 5 6 7
-1 -1 -1 -0 -0 -0 -1 -1 0 1 0 0 1 1 1 1 2 2 2 1 -0 -1 -1 -1 -0 0 0 -0 -1 -1 -1 -0 -0 -0 0 0 1 2 2 3 5 6 7
0 -1 -2 -1 -0 -0 -1 -0 0 1 1 0 0 0 0 0 0 0 0 -1 -1 -2 -2 -1 -0 0 0 -0 -1 -1 -1 -0 -0 -0 0 0 1 1 2 3 5 6 7
3 2 -0 -1 -1 -1 -1 -1 0 1 1 0 0 -0 -0 -1 -1 -1 -1 -1 -1 -1 -2 -1 -1 -0 -0 -0 -0 -0 -0 -0 -0 0 0 1 1 1 2 3 4 6 7
5 4 2 0 -0 -0 -1 -1 -1 -0 1 1 1 0 -0 -1 -1 -1 -1 -1 -1 -1 -1 -1 -1 -1 -1 -1 -1 -0 -0 -0 0 0 0 1 1 1 2 3 4 6 7
6 5 4 2 1 0 -0 -1 -1 -0 0 1 1 1 0 -1 -1 -1 -1 -1 -0 -1 -1 -1 -1 -1 -1 -1 -1 -1 -0 -0 0 0 1 1 1 2 2 3 4 6 7